Tracking 19575 objects as of 21-Feb-2019
HD Live streaming from Space Station
objects crossing your sky now

FLOCK 3P 4

Track FLOCK 3P 4 now!
10-day predictions
FLOCK 3P 4 is classified as:


NORAD ID: 41965
Int'l Code: 2017-008T
Perigee: 492.2 km
Apogee: 503.4 km
Inclination: 97.4 °
Period: 94.4 minutes
Semi major axis: 6868 km
RCS: Unknown
Launch date: February 15, 2017
Source: United States (US)
Launch site: SRIHARIKOTA (SRI)
aabbcc
Your satellite tracking list
Your tracking list is empty




NASA's NSSDC Master Catalog

Two Line Element Set (TLE):
1 41965U 17008T   19051.29165031  .00001049  00000-0  44835-4 0  9996
2 41965  97.4203 119.3573 0008162 187.3304 172.7816 15.25047947111834
Source of the keplerian elements: AFSPC